Tracking 19176 objects as of 26-May-2018
HD Live streaming from Space Station
objects crossing your sky now

ASTRO H DEB

Track ASTRO H DEB now!
10-day predictions


NORAD ID: 41441
Int'l Code: 2016-012K
Perigee: 483.5 km
Apogee: 504.7 km
Inclination: 30.9 °
Period: 94.3 minutes
Semi major axis: 6865 km
RCS: Unknown
Launch date: February 17, 2016
Source: Japan (JPN)
Launch site: TANEGASHIMA SPACE CENTER (TNSTA)

Note: This is SATELLITE DEBRIS
aabbcc
Your satellite tracking list
Your tracking list is empty




NASA's NSSDC Master Catalog

Two Line Element Set (TLE):
1 41441U 16012K   18145.56243462  .00009872  00000-0  36445-3 0  9996
2 41441  30.9417 327.3125 0015403 189.5551 170.4799 15.26278931120015
Source of the keplerian elements: AFSPC